Location: Altleiningen
(49.5078°N, 8.0741°E)
Time: 10:24:19
(UTC+00:00)

Cosmos 1354 Rocket - Pass Details

Date: 03 March 2021
Orbit: 765 x 782 km, 74.0° (Epoch: 13 April)

Event Time Altitude Azimuth Distance (km) Brightness Sun altitude
Rises 18:18:09 0° 337° (NNW) 3,254 7.6 -11.2°
Reaches altitude 10° 18:20:33 10° 339° (NNW) 2,320 6.8 -11.6°
Maximum altitude 18:25:49 76° 65° (ENE) 796 3.9 -12.5°
Drops below altitude 10° 18:31:02 10° 152° (SSE) 2,298 6.1 -13.3°
Sets 18:33:24 0° 153° (SSE) 3,220 6.9 -13.7°
